Index of /20260505/WXO-DD/model_rdps/10km/06/024
Name Last modified Size Description
Parent Directory -
20260505T06Z_MSC_RDPS_AbsoluteVorticity_IsbL-0250_RLatLon0.09_PT024H.grib2 2026-05-05 08:48 594K
20260505T06Z_MSC_RDPS_AbsoluteVorticity_IsbL-0500_RLatLon0.09_PT024H.grib2 2026-05-05 08:48 558K
20260505T06Z_MSC_RDPS_AbsoluteVorticity_IsbL-0700_RLatLon0.09_PT024H.grib2 2026-05-05 08:48 614K
20260505T06Z_MSC_RDPS_AbsoluteVorticity_IsbL-0850_RLatLon0.09_PT024H.grib2 2026-05-05 08:48 787K
20260505T06Z_MSC_RDPS_AirTemp_AGL-120m_RLatLon0.09_PT024H.grib2 2026-05-05 08:48 371K
20260505T06Z_MSC_RDPS_AirTemp_AGL-2m_RLatLon0.09_PT024H.grib2 2026-05-05 08:48 622K
20260505T06Z_MSC_RDPS_AirTemp_AGL-40m_RLatLon0.09_PT024H.grib2 2026-05-05 08:48 385K
20260505T06Z_MSC_RDPS_AirTemp_AGL-80m_RLatLon0.09_PT024H.grib2 2026-05-05 08:48 377K
20260505T06Z_MSC_RDPS_AirTemp_IsbL-0001_RLatLon0.09_PT024H.grib2 2026-05-05 08:48 296K
20260505T06Z_MSC_RDPS_AirTemp_IsbL-0005_RLatLon0.09_PT024H.grib2 2026-05-05 08:48 287K
20260505T06Z_MSC_RDPS_AirTemp_IsbL-0010_RLatLon0.09_PT024H.grib2 2026-05-05 08:48 298K
20260505T06Z_MSC_RDPS_AirTemp_IsbL-0020_RLatLon0.09_PT024H.grib2 2026-05-05 08:48 314K
20260505T06Z_MSC_RDPS_AirTemp_IsbL-0030_RLatLon0.09_PT024H.grib2 2026-05-05 08:48 332K
20260505T06Z_MSC_RDPS_AirTemp_IsbL-0050_RLatLon0.09_PT024H.grib2 2026-05-05 08:48 314K
20260505T06Z_MSC_RDPS_AirTemp_IsbL-0100_RLatLon0.09_PT024H.grib2 2026-05-05 08:48 391K
20260505T06Z_MSC_RDPS_AirTemp_IsbL-0150_RLatLon0.09_PT024H.grib2 2026-05-05 08:48 413K
20260505T06Z_MSC_RDPS_AirTemp_IsbL-0175_RLatLon0.09_PT024H.grib2 2026-05-05 08:48 404K
20260505T06Z_MSC_RDPS_AirTemp_IsbL-0200_RLatLon0.09_PT024H.grib2 2026-05-05 08:48 407K
20260505T06Z_MSC_RDPS_AirTemp_IsbL-0225_RLatLon0.09_PT024H.grib2 2026-05-05 08:48 407K
20260505T06Z_MSC_RDPS_AirTemp_IsbL-0250_RLatLon0.09_PT024H.grib2 2026-05-05 08:48 413K
20260505T06Z_MSC_RDPS_AirTemp_IsbL-0275_RLatLon0.09_PT024H.grib2 2026-05-05 08:48 396K
20260505T06Z_MSC_RDPS_AirTemp_IsbL-0300_RLatLon0.09_PT024H.grib2 2026-05-05 08:48 405K
20260505T06Z_MSC_RDPS_AirTemp_IsbL-0350_RLatLon0.09_PT024H.grib2 2026-05-05 08:48 424K
20260505T06Z_MSC_RDPS_AirTemp_IsbL-0400_RLatLon0.09_PT024H.grib2 2026-05-05 08:48 429K
20260505T06Z_MSC_RDPS_AirTemp_IsbL-0450_RLatLon0.09_PT024H.grib2 2026-05-05 08:48 437K
20260505T06Z_MSC_RDPS_AirTemp_IsbL-0500_RLatLon0.09_PT024H.grib2 2026-05-05 08:48 446K
20260505T06Z_MSC_RDPS_AirTemp_IsbL-0550_RLatLon0.09_PT024H.grib2 2026-05-05 08:48 462K
20260505T06Z_MSC_RDPS_AirTemp_IsbL-0600_RLatLon0.09_PT024H.grib2 2026-05-05 08:48 480K
20260505T06Z_MSC_RDPS_AirTemp_IsbL-0650_RLatLon0.09_PT024H.grib2 2026-05-05 08:48 459K
20260505T06Z_MSC_RDPS_AirTemp_IsbL-0700_RLatLon0.09_PT024H.grib2 2026-05-05 08:48 376K
20260505T06Z_MSC_RDPS_AirTemp_IsbL-0750_RLatLon0.09_PT024H.grib2 2026-05-05 08:48 407K
20260505T06Z_MSC_RDPS_AirTemp_IsbL-0800_RLatLon0.09_PT024H.grib2 2026-05-05 08:48 452K
20260505T06Z_MSC_RDPS_AirTemp_IsbL-0850_RLatLon0.09_PT024H.grib2 2026-05-05 08:48 506K
20260505T06Z_MSC_RDPS_AirTemp_IsbL-0875_RLatLon0.09_PT024H.grib2 2026-05-05 08:48 525K
20260505T06Z_MSC_RDPS_AirTemp_IsbL-0900_RLatLon0.09_PT024H.grib2 2026-05-05 08:48 531K
20260505T06Z_MSC_RDPS_AirTemp_IsbL-0925_RLatLon0.09_PT024H.grib2 2026-05-05 08:48 525K
20260505T06Z_MSC_RDPS_AirTemp_IsbL-0950_RLatLon0.09_PT024H.grib2 2026-05-05 08:48 519K
20260505T06Z_MSC_RDPS_AirTemp_IsbL-0970_RLatLon0.09_PT024H.grib2 2026-05-05 08:48 508K
20260505T06Z_MSC_RDPS_AirTemp_IsbL-0985_RLatLon0.09_PT024H.grib2 2026-05-05 08:48 494K
20260505T06Z_MSC_RDPS_AirTemp_IsbL-1000_RLatLon0.09_PT024H.grib2 2026-05-05 08:48 477K
20260505T06Z_MSC_RDPS_AirTemp_IsbL-1015_RLatLon0.09_PT024H.grib2 2026-05-05 08:48 484K
20260505T06Z_MSC_RDPS_Albedo_Sfc_RLatLon0.09_PT024H.grib2 2026-05-05 08:48 156K
20260505T06Z_MSC_RDPS_CAPE_Sfc_RLatLon0.09_PT024H.grib2 2026-05-05 08:48 1.7M
20260505T06Z_MSC_RDPS_CIN_Sfc_RLatLon0.09_PT024H.grib2 2026-05-05 08:48 1.2M
20260505T06Z_MSC_RDPS_CloudWater_EAtm_RLatLon0.09_PT024H.grib2 2026-05-05 08:48 219K
20260505T06Z_MSC_RDPS_ConvectivePrecip-Accum_Sfc_RLatLon0.09_PT024H.grib2 2026-05-05 08:48 778K
20260505T06Z_MSC_RDPS_DewPointDepression_AGL-2m_RLatLon0.09_PT024H.grib2 2026-05-05 08:48 399K
20260505T06Z_MSC_RDPS_DewPointDepression_IsbL-0001_RLatLon0.09_PT024H.grib2 2026-05-05 08:48 193
20260505T06Z_MSC_RDPS_DewPointDepression_IsbL-0005_RLatLon0.09_PT024H.grib2 2026-05-05 08:48 193
20260505T06Z_MSC_RDPS_DewPointDepression_IsbL-0010_RLatLon0.09_PT024H.grib2 2026-05-05 08:48 193
20260505T06Z_MSC_RDPS_DewPointDepression_IsbL-0020_RLatLon0.09_PT024H.grib2 2026-05-05 08:48 193
20260505T06Z_MSC_RDPS_DewPointDepression_IsbL-0030_RLatLon0.09_PT024H.grib2 2026-05-05 08:48 193
20260505T06Z_MSC_RDPS_DewPointDepression_IsbL-0050_RLatLon0.09_PT024H.grib2 2026-05-05 08:48 79K
20260505T06Z_MSC_RDPS_DewPointDepression_IsbL-0100_RLatLon0.09_PT024H.grib2 2026-05-05 08:48 113K
20260505T06Z_MSC_RDPS_DewPointDepression_IsbL-0150_RLatLon0.09_PT024H.grib2 2026-05-05 08:48 139K
20260505T06Z_MSC_RDPS_DewPointDepression_IsbL-0175_RLatLon0.09_PT024H.grib2 2026-05-05 08:48 177K
20260505T06Z_MSC_RDPS_DewPointDepression_IsbL-0200_RLatLon0.09_PT024H.grib2 2026-05-05 08:48 213K
20260505T06Z_MSC_RDPS_DewPointDepression_IsbL-0225_RLatLon0.09_PT024H.grib2 2026-05-05 08:48 246K
20260505T06Z_MSC_RDPS_DewPointDepression_IsbL-0250_RLatLon0.09_PT024H.grib2 2026-05-05 08:48 291K
20260505T06Z_MSC_RDPS_DewPointDepression_IsbL-0275_RLatLon0.09_PT024H.grib2 2026-05-05 08:48 305K
20260505T06Z_MSC_RDPS_DewPointDepression_IsbL-0300_RLatLon0.09_PT024H.grib2 2026-05-05 08:48 323K
20260505T06Z_MSC_RDPS_DewPointDepression_IsbL-0350_RLatLon0.09_PT024H.grib2 2026-05-05 08:48 329K
20260505T06Z_MSC_RDPS_DewPointDepression_IsbL-0400_RLatLon0.09_PT024H.grib2 2026-05-05 08:48 339K
20260505T06Z_MSC_RDPS_DewPointDepression_IsbL-0450_RLatLon0.09_PT024H.grib2 2026-05-05 08:48 343K
20260505T06Z_MSC_RDPS_DewPointDepression_IsbL-0500_RLatLon0.09_PT024H.grib2 2026-05-05 08:48 343K
20260505T06Z_MSC_RDPS_DewPointDepression_IsbL-0550_RLatLon0.09_PT024H.grib2 2026-05-05 08:48 356K
20260505T06Z_MSC_RDPS_DewPointDepression_IsbL-0600_RLatLon0.09_PT024H.grib2 2026-05-05 08:48 365K
20260505T06Z_MSC_RDPS_DewPointDepression_IsbL-0650_RLatLon0.09_PT024H.grib2 2026-05-05 08:48 369K
20260505T06Z_MSC_RDPS_DewPointDepression_IsbL-0700_RLatLon0.09_PT024H.grib2 2026-05-05 08:48 378K
20260505T06Z_MSC_RDPS_DewPointDepression_IsbL-0750_RLatLon0.09_PT024H.grib2 2026-05-05 08:48 398K
20260505T06Z_MSC_RDPS_DewPointDepression_IsbL-0800_RLatLon0.09_PT024H.grib2 2026-05-05 08:48 432K
20260505T06Z_MSC_RDPS_DewPointDepression_IsbL-0850_RLatLon0.09_PT024H.grib2 2026-05-05 08:48 474K
20260505T06Z_MSC_RDPS_DewPointDepression_IsbL-0875_RLatLon0.09_PT024H.grib2 2026-05-05 08:48 474K
20260505T06Z_MSC_RDPS_DewPointDepression_IsbL-0900_RLatLon0.09_PT024H.grib2 2026-05-05 08:48 462K
20260505T06Z_MSC_RDPS_DewPointDepression_IsbL-0925_RLatLon0.09_PT024H.grib2 2026-05-05 08:48 448K
20260505T06Z_MSC_RDPS_DewPointDepression_IsbL-0950_RLatLon0.09_PT024H.grib2 2026-05-05 08:48 439K
20260505T06Z_MSC_RDPS_DewPointDepression_IsbL-0970_RLatLon0.09_PT024H.grib2 2026-05-05 08:48 430K
20260505T06Z_MSC_RDPS_DewPointDepression_IsbL-0985_RLatLon0.09_PT024H.grib2 2026-05-05 08:48 427K
20260505T06Z_MSC_RDPS_DewPointDepression_IsbL-1000_RLatLon0.09_PT024H.grib2 2026-05-05 08:48 421K
20260505T06Z_MSC_RDPS_DewPointDepression_IsbL-1015_RLatLon0.09_PT024H.grib2 2026-05-05 08:48 413K
20260505T06Z_MSC_RDPS_DewPoint_AGL-2m_RLatLon0.09_PT024H.grib2 2026-05-05 08:48 300K
20260505T06Z_MSC_RDPS_DownwardLongwaveRadiationFlux-Accum_Sfc_RLatLon0.09_PT024H.grib2 2026-05-05 08:48 436K
20260505T06Z_MSC_RDPS_DownwardShortwaveRadiationFlux-Accum_NTAtm_RLatLon0.09_PT024H.grib2 2026-05-05 08:48 145K
20260505T06Z_MSC_RDPS_DownwardShortwaveRadiationFlux-Accum_Sfc_RLatLon0.09_PT024H.grib2 2026-05-05 08:48 640K
20260505T06Z_MSC_RDPS_FreezingRain-Accum12h_Sfc_RLatLon0.09_PT024H.grib2 2026-05-05 08:48 53K
20260505T06Z_MSC_RDPS_FreezingRain-Accum1h_Sfc_RLatLon0.09_PT024H.grib2 2026-05-05 08:48 27K
20260505T06Z_MSC_RDPS_FreezingRain-Accum24h_Sfc_RLatLon0.09_PT024H.grib2 2026-05-05 08:48 87K
20260505T06Z_MSC_RDPS_FreezingRain-Accum3h_Sfc_RLatLon0.09_PT024H.grib2 2026-05-05 08:48 32K
20260505T06Z_MSC_RDPS_FreezingRain-Accum6h_Sfc_RLatLon0.09_PT024H.grib2 2026-05-05 08:48 46K
20260505T06Z_MSC_RDPS_FreezingRain-Accum_Sfc_RLatLon0.09_PT024H.grib2 2026-05-05 08:48 102K
20260505T06Z_MSC_RDPS_GeopotentialHeight_IsbL-0001_RLatLon0.09_PT024H.grib2 2026-05-05 08:48 237K
20260505T06Z_MSC_RDPS_GeopotentialHeight_IsbL-0005_RLatLon0.09_PT024H.grib2 2026-05-05 08:48 337K
20260505T06Z_MSC_RDPS_GeopotentialHeight_IsbL-0010_RLatLon0.09_PT024H.grib2 2026-05-05 08:48 338K
20260505T06Z_MSC_RDPS_GeopotentialHeight_IsbL-0020_RLatLon0.09_PT024H.grib2 2026-05-05 08:48 305K
20260505T06Z_MSC_RDPS_GeopotentialHeight_IsbL-0030_RLatLon0.09_PT024H.grib2 2026-05-05 08:48 403K
20260505T06Z_MSC_RDPS_GeopotentialHeight_IsbL-0050_RLatLon0.09_PT024H.grib2 2026-05-05 08:48 309K
20260505T06Z_MSC_RDPS_GeopotentialHeight_IsbL-0100_RLatLon0.09_PT024H.grib2 2026-05-05 08:48 285K
20260505T06Z_MSC_RDPS_GeopotentialHeight_IsbL-0150_RLatLon0.09_PT024H.grib2 2026-05-05 08:48 227K
20260505T06Z_MSC_RDPS_GeopotentialHeight_IsbL-0175_RLatLon0.09_PT024H.grib2 2026-05-05 08:48 230K
20260505T06Z_MSC_RDPS_GeopotentialHeight_IsbL-0200_RLatLon0.09_PT024H.grib2 2026-05-05 08:48 263K
20260505T06Z_MSC_RDPS_GeopotentialHeight_IsbL-0225_RLatLon0.09_PT024H.grib2 2026-05-05 08:48 265K
20260505T06Z_MSC_RDPS_GeopotentialHeight_IsbL-0250_RLatLon0.09_PT024H.grib2 2026-05-05 08:48 266K
20260505T06Z_MSC_RDPS_GeopotentialHeight_IsbL-0275_RLatLon0.09_PT024H.grib2 2026-05-05 08:48 265K
20260505T06Z_MSC_RDPS_GeopotentialHeight_IsbL-0300_RLatLon0.09_PT024H.grib2 2026-05-05 08:48 235K
20260505T06Z_MSC_RDPS_GeopotentialHeight_IsbL-0350_RLatLon0.09_PT024H.grib2 2026-05-05 08:48 232K
20260505T06Z_MSC_RDPS_GeopotentialHeight_IsbL-0400_RLatLon0.09_PT024H.grib2 2026-05-05 08:48 229K
20260505T06Z_MSC_RDPS_GeopotentialHeight_IsbL-0450_RLatLon0.09_PT024H.grib2 2026-05-05 08:48 298K
20260505T06Z_MSC_RDPS_GeopotentialHeight_IsbL-0500_RLatLon0.09_PT024H.grib2 2026-05-05 08:48 293K
20260505T06Z_MSC_RDPS_GeopotentialHeight_IsbL-0550_RLatLon0.09_PT024H.grib2 2026-05-05 08:48 289K
20260505T06Z_MSC_RDPS_GeopotentialHeight_IsbL-0600_RLatLon0.09_PT024H.grib2 2026-05-05 08:48 287K
20260505T06Z_MSC_RDPS_GeopotentialHeight_IsbL-0650_RLatLon0.09_PT024H.grib2 2026-05-05 08:48 257K
20260505T06Z_MSC_RDPS_GeopotentialHeight_IsbL-0700_RLatLon0.09_PT024H.grib2 2026-05-05 08:48 256K
20260505T06Z_MSC_RDPS_GeopotentialHeight_IsbL-0750_RLatLon0.09_PT024H.grib2 2026-05-05 08:48 342K
20260505T06Z_MSC_RDPS_GeopotentialHeight_IsbL-0800_RLatLon0.09_PT024H.grib2 2026-05-05 08:48 350K
20260505T06Z_MSC_RDPS_GeopotentialHeight_IsbL-0850_RLatLon0.09_PT024H.grib2 2026-05-05 08:48 363K
20260505T06Z_MSC_RDPS_GeopotentialHeight_IsbL-0875_RLatLon0.09_PT024H.grib2 2026-05-05 08:48 365K
20260505T06Z_MSC_RDPS_GeopotentialHeight_IsbL-0900_RLatLon0.09_PT024H.grib2 2026-05-05 08:48 366K
20260505T06Z_MSC_RDPS_GeopotentialHeight_IsbL-0925_RLatLon0.09_PT024H.grib2 2026-05-05 08:48 370K
20260505T06Z_MSC_RDPS_GeopotentialHeight_IsbL-0950_RLatLon0.09_PT024H.grib2 2026-05-05 08:48 284K
20260505T06Z_MSC_RDPS_GeopotentialHeight_IsbL-0970_RLatLon0.09_PT024H.grib2 2026-05-05 08:48 287K
20260505T06Z_MSC_RDPS_GeopotentialHeight_IsbL-0985_RLatLon0.09_PT024H.grib2 2026-05-05 08:48 292K
20260505T06Z_MSC_RDPS_GeopotentialHeight_IsbL-1000_RLatLon0.09_PT024H.grib2 2026-05-05 08:48 300K
20260505T06Z_MSC_RDPS_GeopotentialHeight_IsbL-1015_RLatLon0.09_PT024H.grib2 2026-05-05 08:48 311K
20260505T06Z_MSC_RDPS_Humidex_Sfc_RLatLon0.09_PT024H.grib2 2026-05-05 08:48 2.2M
20260505T06Z_MSC_RDPS_IcePellets-Accum12h_Sfc_RLatLon0.09_PT024H.grib2 2026-05-05 08:48 13K
20260505T06Z_MSC_RDPS_IcePellets-Accum1h_Sfc_RLatLon0.09_PT024H.grib2 2026-05-05 08:48 5.4K
20260505T06Z_MSC_RDPS_IcePellets-Accum24h_Sfc_RLatLon0.09_PT024H.grib2 2026-05-05 08:48 22K
20260505T06Z_MSC_RDPS_IcePellets-Accum3h_Sfc_RLatLon0.09_PT024H.grib2 2026-05-05 08:48 5.8K
20260505T06Z_MSC_RDPS_IcePellets-Accum6h_Sfc_RLatLon0.09_PT024H.grib2 2026-05-05 08:48 8.8K
20260505T06Z_MSC_RDPS_IcePellets-Accum_Sfc_RLatLon0.09_PT024H.grib2 2026-05-05 08:48 24K
20260505T06Z_MSC_RDPS_KIndex_Sfc_RLatLon0.09_PT024H.grib2 2026-05-05 08:48 2.4M
20260505T06Z_MSC_RDPS_LatentHeatNetFlux_Sfc_RLatLon0.09_PT024H.grib2 2026-05-05 08:48 321K
20260505T06Z_MSC_RDPS_LiftedIndex-MU-VT_IsbL-0500_RLatLon0.09_PT024H.grib2 2026-05-05 08:48 2.4M
20260505T06Z_MSC_RDPS_NetLongwaveRadiationFlux-Accum_Sfc_RLatLon0.09_PT024H.grib2 2026-05-05 08:48 579K
20260505T06Z_MSC_RDPS_NetShortwaveRadiationFlux-Accum_Sfc_RLatLon0.09_PT024H.grib2 2026-05-05 08:48 633K
20260505T06Z_MSC_RDPS_PlanetaryBoundaryLayerHeight_Sfc_RLatLon0.09_PT024H.grib2 2026-05-05 08:48 1.1M
20260505T06Z_MSC_RDPS_Precip-Accum12h_Sfc_RLatLon0.09_PT024H.grib2 2026-05-05 08:48 1.6M
20260505T06Z_MSC_RDPS_Precip-Accum1h_Sfc_RLatLon0.09_PT024H.grib2 2026-05-05 08:48 1.2M
20260505T06Z_MSC_RDPS_Precip-Accum24h_Sfc_RLatLon0.09_PT024H.grib2 2026-05-05 08:48 1.8M
20260505T06Z_MSC_RDPS_Precip-Accum3h_Sfc_RLatLon0.09_PT024H.grib2 2026-05-05 08:48 1.3M
20260505T06Z_MSC_RDPS_Precip-Accum6h_Sfc_RLatLon0.09_PT024H.grib2 2026-05-05 08:48 1.5M
20260505T06Z_MSC_RDPS_Precip-Accum_Sfc_RLatLon0.09_PT024H.grib2 2026-05-05 08:48 1.8M
20260505T06Z_MSC_RDPS_PrecipRate_Sfc_RLatLon0.09_PT024H.grib2 2026-05-05 08:48 169K
20260505T06Z_MSC_RDPS_PrecipType-Instant_Sfc_RLatLon0.09_PT024H.grib2 2026-05-05 08:48 594K
20260505T06Z_MSC_RDPS_Pressure-Trend3h_Sfc_RLatLon0.09_PT024H.grib2 2026-05-05 08:48 1.2M
20260505T06Z_MSC_RDPS_Pressure_MSL_RLatLon0.09_PT024H.grib2 2026-05-05 08:48 325K
20260505T06Z_MSC_RDPS_Pressure_PVU-1.5_RLatLon0.09_PT024H.grib2 2026-05-05 08:48 2.3M
20260505T06Z_MSC_RDPS_Pressure_PVU-1_RLatLon0.09_PT024H.grib2 2026-05-05 08:48 2.4M
20260505T06Z_MSC_RDPS_Pressure_PVU-2_RLatLon0.09_PT024H.grib2 2026-05-05 08:48 2.4M
20260505T06Z_MSC_RDPS_Pressure_Sfc_RLatLon0.09_PT024H.grib2 2026-05-05 08:48 497K
20260505T06Z_MSC_RDPS_RadiativeTemp_Sfc_RLatLon0.09_PT024H.grib2 2026-05-05 08:48 296K
20260505T06Z_MSC_RDPS_Rain-Accum12h_Sfc_RLatLon0.09_PT024H.grib2 2026-05-05 08:48 1.1M
20260505T06Z_MSC_RDPS_Rain-Accum1h_Sfc_RLatLon0.09_PT024H.grib2 2026-05-05 08:48 547K
20260505T06Z_MSC_RDPS_Rain-Accum24h_Sfc_RLatLon0.09_PT024H.grib2 2026-05-05 08:48 1.4M
20260505T06Z_MSC_RDPS_Rain-Accum3h_Sfc_RLatLon0.09_PT024H.grib2 2026-05-05 08:48 623K
20260505T06Z_MSC_RDPS_Rain-Accum6h_Sfc_RLatLon0.09_PT024H.grib2 2026-05-05 08:48 1.0M
20260505T06Z_MSC_RDPS_Rain-Accum_Sfc_RLatLon0.09_PT024H.grib2 2026-05-05 08:48 1.5M
20260505T06Z_MSC_RDPS_RelativeHumidity_AGL-2m_RLatLon0.09_PT024H.grib2 2026-05-05 08:48 1.0M
20260505T06Z_MSC_RDPS_RelativeHumidity_IsbL-0010_RLatLon0.09_PT024H.grib2 2026-05-05 08:48 702K
20260505T06Z_MSC_RDPS_RelativeHumidity_IsbL-0020_RLatLon0.09_PT024H.grib2 2026-05-05 08:48 665K
20260505T06Z_MSC_RDPS_RelativeHumidity_IsbL-0030_RLatLon0.09_PT024H.grib2 2026-05-05 08:48 640K
20260505T06Z_MSC_RDPS_RelativeHumidity_IsbL-0050_RLatLon0.09_PT024H.grib2 2026-05-05 08:48 360K
20260505T06Z_MSC_RDPS_RelativeHumidity_IsbL-0100_RLatLon0.09_PT024H.grib2 2026-05-05 08:48 272K
20260505T06Z_MSC_RDPS_RelativeHumidity_IsbL-0150_RLatLon0.09_PT024H.grib2 2026-05-05 08:48 414K
20260505T06Z_MSC_RDPS_RelativeHumidity_IsbL-0175_RLatLon0.09_PT024H.grib2 2026-05-05 08:48 472K
20260505T06Z_MSC_RDPS_RelativeHumidity_IsbL-0200_RLatLon0.09_PT024H.grib2 2026-05-05 08:48 541K
20260505T06Z_MSC_RDPS_RelativeHumidity_IsbL-0225_RLatLon0.09_PT024H.grib2 2026-05-05 08:48 599K
20260505T06Z_MSC_RDPS_RelativeHumidity_IsbL-0250_RLatLon0.09_PT024H.grib2 2026-05-05 08:48 666K
20260505T06Z_MSC_RDPS_RelativeHumidity_IsbL-0275_RLatLon0.09_PT024H.grib2 2026-05-05 08:48 699K
20260505T06Z_MSC_RDPS_RelativeHumidity_IsbL-0300_RLatLon0.09_PT024H.grib2 2026-05-05 08:48 746K
20260505T06Z_MSC_RDPS_RelativeHumidity_IsbL-0350_RLatLon0.09_PT024H.grib2 2026-05-05 08:48 766K
20260505T06Z_MSC_RDPS_RelativeHumidity_IsbL-0400_RLatLon0.09_PT024H.grib2 2026-05-05 08:48 780K
20260505T06Z_MSC_RDPS_RelativeHumidity_IsbL-0450_RLatLon0.09_PT024H.grib2 2026-05-05 08:48 787K
20260505T06Z_MSC_RDPS_RelativeHumidity_IsbL-0500_RLatLon0.09_PT024H.grib2 2026-05-05 08:48 790K
20260505T06Z_MSC_RDPS_RelativeHumidity_IsbL-0550_RLatLon0.09_PT024H.grib2 2026-05-05 08:48 821K
20260505T06Z_MSC_RDPS_RelativeHumidity_IsbL-0600_RLatLon0.09_PT024H.grib2 2026-05-05 08:48 837K
20260505T06Z_MSC_RDPS_RelativeHumidity_IsbL-0650_RLatLon0.09_PT024H.grib2 2026-05-05 08:48 837K
20260505T06Z_MSC_RDPS_RelativeHumidity_IsbL-0700_RLatLon0.09_PT024H.grib2 2026-05-05 08:48 873K
20260505T06Z_MSC_RDPS_RelativeHumidity_IsbL-0750_RLatLon0.09_PT024H.grib2 2026-05-05 08:48 910K
20260505T06Z_MSC_RDPS_RelativeHumidity_IsbL-0800_RLatLon0.09_PT024H.grib2 2026-05-05 08:48 1.0M
20260505T06Z_MSC_RDPS_RelativeHumidity_IsbL-0850_RLatLon0.09_PT024H.grib2 2026-05-05 08:48 1.0M
20260505T06Z_MSC_RDPS_RelativeHumidity_IsbL-0875_RLatLon0.09_PT024H.grib2 2026-05-05 08:48 1.1M
20260505T06Z_MSC_RDPS_RelativeHumidity_IsbL-0900_RLatLon0.09_PT024H.grib2 2026-05-05 08:48 1.1M
20260505T06Z_MSC_RDPS_RelativeHumidity_IsbL-0925_RLatLon0.09_PT024H.grib2 2026-05-05 08:48 1.1M
20260505T06Z_MSC_RDPS_RelativeHumidity_IsbL-0950_RLatLon0.09_PT024H.grib2 2026-05-05 08:48 1.1M
20260505T06Z_MSC_RDPS_RelativeHumidity_IsbL-0970_RLatLon0.09_PT024H.grib2 2026-05-05 08:48 1.0M
20260505T06Z_MSC_RDPS_RelativeHumidity_IsbL-0985_RLatLon0.09_PT024H.grib2 2026-05-05 08:48 1.0M
20260505T06Z_MSC_RDPS_RelativeHumidity_IsbL-1000_RLatLon0.09_PT024H.grib2 2026-05-05 08:48 1.0M
20260505T06Z_MSC_RDPS_RelativeHumidity_IsbL-1015_RLatLon0.09_PT024H.grib2 2026-05-05 08:48 1.0M
20260505T06Z_MSC_RDPS_Runoff-Accum_Sfc_RLatLon0.09_PT024H.grib2 2026-05-05 08:48 54K
20260505T06Z_MSC_RDPS_SWEATIndex_Sfc_RLatLon0.09_PT024H.grib2 2026-05-05 08:48 2.4M
20260505T06Z_MSC_RDPS_SeeingIndex_EAtm_RLatLon0.09_PT024H.grib2 2026-05-05 08:48 1.0M
20260505T06Z_MSC_RDPS_SensibleHeatNetFlux_Sfc_RLatLon0.09_PT024H.grib2 2026-05-05 08:48 294K
20260505T06Z_MSC_RDPS_ShowalterIndex_IsbL-0500_RLatLon0.09_PT024H.grib2 2026-05-05 08:48 2.6M
20260505T06Z_MSC_RDPS_SkyTransparencyIndex_EAtm_RLatLon0.09_PT024H.grib2 2026-05-05 08:48 685K
20260505T06Z_MSC_RDPS_Snow-Accum12h_Sfc_RLatLon0.09_PT024H.grib2 2026-05-05 08:48 569K
20260505T06Z_MSC_RDPS_Snow-Accum1h_Sfc_RLatLon0.09_PT024H.grib2 2026-05-05 08:48 539K
20260505T06Z_MSC_RDPS_Snow-Accum24h_Sfc_RLatLon0.09_PT024H.grib2 2026-05-05 08:48 638K
20260505T06Z_MSC_RDPS_Snow-Accum3h_Sfc_RLatLon0.09_PT024H.grib2 2026-05-05 08:48 469K
20260505T06Z_MSC_RDPS_Snow-Accum6h_Sfc_RLatLon0.09_PT024H.grib2 2026-05-05 08:48 556K
20260505T06Z_MSC_RDPS_Snow-Accum_Sfc_RLatLon0.09_PT024H.grib2 2026-05-05 08:48 712K
20260505T06Z_MSC_RDPS_SnowDensity_Sfc_RLatLon0.09_PT024H.grib2 2026-05-05 08:48 173K
20260505T06Z_MSC_RDPS_SnowDepth_Sfc_RLatLon0.09_PT024H.grib2 2026-05-05 08:48 652K
20260505T06Z_MSC_RDPS_SoilTemp_DBS-0to10cm_RLatLon0.09_PT024H.grib2 2026-05-05 08:48 224K
20260505T06Z_MSC_RDPS_SoilTemp_Sfc_RLatLon0.09_PT024H.grib2 2026-05-05 08:48 254K
20260505T06Z_MSC_RDPS_SoilVolumetricIceContent_Sfc_RLatLon0.09_PT024H.grib2 2026-05-05 08:48 151K
20260505T06Z_MSC_RDPS_SoilVolumetricWaterContent_DBS-0to10cm_RLatLon0.09_PT024H.grib2 2026-05-05 08:48 279K
20260505T06Z_MSC_RDPS_SoilVolumetricWaterContent_DBS-0to1cm_RLatLon0.09_PT024H.grib2 2026-05-05 08:48 340K
20260505T06Z_MSC_RDPS_SpecificHumidity_AGL-120m_RLatLon0.09_PT024H.grib2 2026-05-05 08:48 485K
20260505T06Z_MSC_RDPS_SpecificHumidity_AGL-2m_RLatLon0.09_PT024H.grib2 2026-05-05 08:48 647K
20260505T06Z_MSC_RDPS_SpecificHumidity_AGL-40m_RLatLon0.09_PT024H.grib2 2026-05-05 08:48 490K
20260505T06Z_MSC_RDPS_SpecificHumidity_AGL-80m_RLatLon0.09_PT024H.grib2 2026-05-05 08:48 486K
20260505T06Z_MSC_RDPS_SpecificHumidity_IsbL-0001_RLatLon0.09_PT024H.grib2 2026-05-05 08:48 398K
20260505T06Z_MSC_RDPS_SpecificHumidity_IsbL-0005_RLatLon0.09_PT024H.grib2 2026-05-05 08:48 375K
20260505T06Z_MSC_RDPS_SpecificHumidity_IsbL-0010_RLatLon0.09_PT024H.grib2 2026-05-05 08:48 408K
20260505T06Z_MSC_RDPS_SpecificHumidity_IsbL-0020_RLatLon0.09_PT024H.grib2 2026-05-05 08:48 387K
20260505T06Z_MSC_RDPS_SpecificHumidity_IsbL-0030_RLatLon0.09_PT024H.grib2 2026-05-05 08:48 376K
20260505T06Z_MSC_RDPS_SpecificHumidity_IsbL-0050_RLatLon0.09_PT024H.grib2 2026-05-05 08:48 485K
20260505T06Z_MSC_RDPS_SpecificHumidity_IsbL-0100_RLatLon0.09_PT024H.grib2 2026-05-05 08:48 419K
20260505T06Z_MSC_RDPS_SpecificHumidity_IsbL-0150_RLatLon0.09_PT024H.grib2 2026-05-05 08:48 456K
20260505T06Z_MSC_RDPS_SpecificHumidity_IsbL-0175_RLatLon0.09_PT024H.grib2 2026-05-05 08:48 440K
20260505T06Z_MSC_RDPS_SpecificHumidity_IsbL-0200_RLatLon0.09_PT024H.grib2 2026-05-05 08:48 464K
20260505T06Z_MSC_RDPS_SpecificHumidity_IsbL-0225_RLatLon0.09_PT024H.grib2 2026-05-05 08:48 442K
20260505T06Z_MSC_RDPS_SpecificHumidity_IsbL-0250_RLatLon0.09_PT024H.grib2 2026-05-05 08:48 549K
20260505T06Z_MSC_RDPS_SpecificHumidity_IsbL-0275_RLatLon0.09_PT024H.grib2 2026-05-05 08:48 472K
20260505T06Z_MSC_RDPS_SpecificHumidity_IsbL-0300_RLatLon0.09_PT024H.grib2 2026-05-05 08:48 548K
20260505T06Z_MSC_RDPS_SpecificHumidity_IsbL-0350_RLatLon0.09_PT024H.grib2 2026-05-05 08:48 540K
20260505T06Z_MSC_RDPS_SpecificHumidity_IsbL-0400_RLatLon0.09_PT024H.grib2 2026-05-05 08:48 520K
20260505T06Z_MSC_RDPS_SpecificHumidity_IsbL-0450_RLatLon0.09_PT024H.grib2 2026-05-05 08:48 569K
20260505T06Z_MSC_RDPS_SpecificHumidity_IsbL-0500_RLatLon0.09_PT024H.grib2 2026-05-05 08:48 501K
20260505T06Z_MSC_RDPS_SpecificHumidity_IsbL-0550_RLatLon0.09_PT024H.grib2 2026-05-05 08:48 574K
20260505T06Z_MSC_RDPS_SpecificHumidity_IsbL-0600_RLatLon0.09_PT024H.grib2 2026-05-05 08:48 624K
20260505T06Z_MSC_RDPS_SpecificHumidity_IsbL-0650_RLatLon0.09_PT024H.grib2 2026-05-05 08:48 539K
20260505T06Z_MSC_RDPS_SpecificHumidity_IsbL-0700_RLatLon0.09_PT024H.grib2 2026-05-05 08:48 581K
20260505T06Z_MSC_RDPS_SpecificHumidity_IsbL-0750_RLatLon0.09_PT024H.grib2 2026-05-05 08:48 634K
20260505T06Z_MSC_RDPS_SpecificHumidity_IsbL-0800_RLatLon0.09_PT024H.grib2 2026-05-05 08:48 716K
20260505T06Z_MSC_RDPS_SpecificHumidity_IsbL-0850_RLatLon0.09_PT024H.grib2 2026-05-05 08:48 799K
20260505T06Z_MSC_RDPS_SpecificHumidity_IsbL-0875_RLatLon0.09_PT024H.grib2 2026-05-05 08:48 826K
20260505T06Z_MSC_RDPS_SpecificHumidity_IsbL-0900_RLatLon0.09_PT024H.grib2 2026-05-05 08:48 837K
20260505T06Z_MSC_RDPS_SpecificHumidity_IsbL-0925_RLatLon0.09_PT024H.grib2 2026-05-05 08:48 838K
20260505T06Z_MSC_RDPS_SpecificHumidity_IsbL-0950_RLatLon0.09_PT024H.grib2 2026-05-05 08:48 838K
20260505T06Z_MSC_RDPS_SpecificHumidity_IsbL-0970_RLatLon0.09_PT024H.grib2 2026-05-05 08:48 688K
20260505T06Z_MSC_RDPS_SpecificHumidity_IsbL-0985_RLatLon0.09_PT024H.grib2 2026-05-05 08:48 680K
20260505T06Z_MSC_RDPS_SpecificHumidity_IsbL-1000_RLatLon0.09_PT024H.grib2 2026-05-05 08:48 673K
20260505T06Z_MSC_RDPS_SpecificHumidity_IsbL-1015_RLatLon0.09_PT024H.grib2 2026-05-05 08:48 663K
20260505T06Z_MSC_RDPS_SpecificHumidity_Sfc_RLatLon0.09_PT024H.grib2 2026-05-05 08:48 295K
20260505T06Z_MSC_RDPS_StormRelativeHelicity_EtaL-10000_RLatLon0.09_PT024H.grib2 2026-05-05 08:48 1.1M
20260505T06Z_MSC_RDPS_StormSeverityIndex_EtaL-10000_RLatLon0.09_PT024H.grib2 2026-05-05 08:48 1.2M
20260505T06Z_MSC_RDPS_Thickness_IsbL-0850to0700_RLatLon0.09_PT024H.grib2 2026-05-05 08:48 178K
20260505T06Z_MSC_RDPS_Thickness_IsbL-1000to0500_RLatLon0.09_PT024H.grib2 2026-05-05 08:48 195K
20260505T06Z_MSC_RDPS_Thickness_IsbL-1000to0850_RLatLon0.09_PT024H.grib2 2026-05-05 08:48 182K
20260505T06Z_MSC_RDPS_TotalCloudCover_Sfc_RLatLon0.09_PT024H.grib2 2026-05-05 08:48 646K
20260505T06Z_MSC_RDPS_TotalTotalsIndex_Sfc_RLatLon0.09_PT024H.grib2 2026-05-05 08:48 2.4M
20260505T06Z_MSC_RDPS_UVIndex-ClearSky_Sfc_RLatLon0.09_PT024H.grib2 2026-05-05 08:48 131K
20260505T06Z_MSC_RDPS_UVIndex_Sfc_RLatLon0.09_PT024H.grib2 2026-05-05 08:48 215K
20260505T06Z_MSC_RDPS_UpwardLongwaveRadiationFlux_NTAtm_RLatLon0.09_PT024H.grib2 2026-05-05 08:48 474K
20260505T06Z_MSC_RDPS_UpwardShortwaveRadiationFlux_NTAtm_RLatLon0.09_PT024H.grib2 2026-05-05 08:48 181K
20260505T06Z_MSC_RDPS_VerticalVelocity_IsbL-0250_RLatLon0.09_PT024H.grib2 2026-05-05 08:48 430K
20260505T06Z_MSC_RDPS_VerticalVelocity_IsbL-0500_RLatLon0.09_PT024H.grib2 2026-05-05 08:48 548K
20260505T06Z_MSC_RDPS_VerticalVelocity_IsbL-0700_RLatLon0.09_PT024H.grib2 2026-05-05 08:48 595K
20260505T06Z_MSC_RDPS_VerticalVelocity_IsbL-0850_RLatLon0.09_PT024H.grib2 2026-05-05 08:48 698K
20260505T06Z_MSC_RDPS_VerticalWindShear_EtaL-6500_RLatLon0.09_PT024H.grib2 2026-05-05 08:48 1.2M
20260505T06Z_MSC_RDPS_WindChill_Sfc_RLatLon0.09_PT024H.grib2 2026-05-05 08:48 1.1M
20260505T06Z_MSC_RDPS_WindDir_AGL-10m_RLatLon0.09_PT024H.grib2 2026-05-05 08:48 946K
20260505T06Z_MSC_RDPS_WindDir_AGL-120m_RLatLon0.09_PT024H.grib2 2026-05-05 08:48 582K
20260505T06Z_MSC_RDPS_WindDir_AGL-40m_RLatLon0.09_PT024H.grib2 2026-05-05 08:48 614K
20260505T06Z_MSC_RDPS_WindDir_AGL-80m_RLatLon0.09_PT024H.grib2 2026-05-05 08:48 595K
20260505T06Z_MSC_RDPS_WindDir_IsbL-0001_RLatLon0.09_PT024H.grib2 2026-05-05 08:48 318K
20260505T06Z_MSC_RDPS_WindDir_IsbL-0005_RLatLon0.09_PT024H.grib2 2026-05-05 08:48 372K
20260505T06Z_MSC_RDPS_WindDir_IsbL-0010_RLatLon0.09_PT024H.grib2 2026-05-05 08:48 388K
20260505T06Z_MSC_RDPS_WindDir_IsbL-0020_RLatLon0.09_PT024H.grib2 2026-05-05 08:48 404K
20260505T06Z_MSC_RDPS_WindDir_IsbL-0030_RLatLon0.09_PT024H.grib2 2026-05-05 08:48 412K
20260505T06Z_MSC_RDPS_WindDir_IsbL-0050_RLatLon0.09_PT024H.grib2 2026-05-05 08:48 430K
20260505T06Z_MSC_RDPS_WindDir_IsbL-0100_RLatLon0.09_PT024H.grib2 2026-05-05 08:48 418K
20260505T06Z_MSC_RDPS_WindDir_IsbL-0150_RLatLon0.09_PT024H.grib2 2026-05-05 08:48 415K
20260505T06Z_MSC_RDPS_WindDir_IsbL-0175_RLatLon0.09_PT024H.grib2 2026-05-05 08:48 441K
20260505T06Z_MSC_RDPS_WindDir_IsbL-0200_RLatLon0.09_PT024H.grib2 2026-05-05 08:48 453K
20260505T06Z_MSC_RDPS_WindDir_IsbL-0225_RLatLon0.09_PT024H.grib2 2026-05-05 08:48 459K
20260505T06Z_MSC_RDPS_WindDir_IsbL-0250_RLatLon0.09_PT024H.grib2 2026-05-05 08:48 454K
20260505T06Z_MSC_RDPS_WindDir_IsbL-0275_RLatLon0.09_PT024H.grib2 2026-05-05 08:48 473K
20260505T06Z_MSC_RDPS_WindDir_IsbL-0300_RLatLon0.09_PT024H.grib2 2026-05-05 08:48 471K
20260505T06Z_MSC_RDPS_WindDir_IsbL-0350_RLatLon0.09_PT024H.grib2 2026-05-05 08:48 504K
20260505T06Z_MSC_RDPS_WindDir_IsbL-0400_RLatLon0.09_PT024H.grib2 2026-05-05 08:48 522K
20260505T06Z_MSC_RDPS_WindDir_IsbL-0450_RLatLon0.09_PT024H.grib2 2026-05-05 08:48 542K
20260505T06Z_MSC_RDPS_WindDir_IsbL-0500_RLatLon0.09_PT024H.grib2 2026-05-05 08:48 545K
20260505T06Z_MSC_RDPS_WindDir_IsbL-0550_RLatLon0.09_PT024H.grib2 2026-05-05 08:48 558K
20260505T06Z_MSC_RDPS_WindDir_IsbL-0600_RLatLon0.09_PT024H.grib2 2026-05-05 08:48 584K
20260505T06Z_MSC_RDPS_WindDir_IsbL-0650_RLatLon0.09_PT024H.grib2 2026-05-05 08:48 631K
20260505T06Z_MSC_RDPS_WindDir_IsbL-0700_RLatLon0.09_PT024H.grib2 2026-05-05 08:48 672K
20260505T06Z_MSC_RDPS_WindDir_IsbL-0750_RLatLon0.09_PT024H.grib2 2026-05-05 08:48 716K
20260505T06Z_MSC_RDPS_WindDir_IsbL-0800_RLatLon0.09_PT024H.grib2 2026-05-05 08:48 779K
20260505T06Z_MSC_RDPS_WindDir_IsbL-0850_RLatLon0.09_PT024H.grib2 2026-05-05 08:48 853K
20260505T06Z_MSC_RDPS_WindDir_IsbL-0875_RLatLon0.09_PT024H.grib2 2026-05-05 08:48 878K
20260505T06Z_MSC_RDPS_WindDir_IsbL-0900_RLatLon0.09_PT024H.grib2 2026-05-05 08:48 891K
20260505T06Z_MSC_RDPS_WindDir_IsbL-0925_RLatLon0.09_PT024H.grib2 2026-05-05 08:48 899K
20260505T06Z_MSC_RDPS_WindDir_IsbL-0950_RLatLon0.09_PT024H.grib2 2026-05-05 08:48 898K
20260505T06Z_MSC_RDPS_WindDir_IsbL-0970_RLatLon0.09_PT024H.grib2 2026-05-05 08:48 899K
20260505T06Z_MSC_RDPS_WindDir_IsbL-0985_RLatLon0.09_PT024H.grib2 2026-05-05 08:48 904K
20260505T06Z_MSC_RDPS_WindDir_IsbL-1000_RLatLon0.09_PT024H.grib2 2026-05-05 08:48 918K
20260505T06Z_MSC_RDPS_WindDir_IsbL-1015_RLatLon0.09_PT024H.grib2 2026-05-05 08:48 936K
20260505T06Z_MSC_RDPS_WindGust-Max_AGL-10m_RLatLon0.09_PT024H.grib2 2026-05-05 08:48 1.0M
20260505T06Z_MSC_RDPS_WindGust-Min_AGL-10m_RLatLon0.09_PT024H.grib2 2026-05-05 08:48 1.0M
20260505T06Z_MSC_RDPS_WindGust_AGL-10m_RLatLon0.09_PT024H.grib2 2026-05-05 08:48 1.0M
20260505T06Z_MSC_RDPS_WindSpeed_AGL-10m_RLatLon0.09_PT024H.grib2 2026-05-05 08:48 842K
20260505T06Z_MSC_RDPS_WindSpeed_AGL-120m_RLatLon0.09_PT024H.grib2 2026-05-05 08:48 538K
20260505T06Z_MSC_RDPS_WindSpeed_AGL-40m_RLatLon0.09_PT024H.grib2 2026-05-05 08:48 544K
20260505T06Z_MSC_RDPS_WindSpeed_AGL-80m_RLatLon0.09_PT024H.grib2 2026-05-05 08:48 540K
20260505T06Z_MSC_RDPS_WindSpeed_IsbL-0001_RLatLon0.09_PT024H.grib2 2026-05-05 08:48 252K
20260505T06Z_MSC_RDPS_WindSpeed_IsbL-0005_RLatLon0.09_PT024H.grib2 2026-05-05 08:48 388K
20260505T06Z_MSC_RDPS_WindSpeed_IsbL-0010_RLatLon0.09_PT024H.grib2 2026-05-05 08:48 366K
20260505T06Z_MSC_RDPS_WindSpeed_IsbL-0020_RLatLon0.09_PT024H.grib2 2026-05-05 08:48 418K
20260505T06Z_MSC_RDPS_WindSpeed_IsbL-0030_RLatLon0.09_PT024H.grib2 2026-05-05 08:48 319K
20260505T06Z_MSC_RDPS_WindSpeed_IsbL-0050_RLatLon0.09_PT024H.grib2 2026-05-05 08:48 352K
20260505T06Z_MSC_RDPS_WindSpeed_IsbL-0100_RLatLon0.09_PT024H.grib2 2026-05-05 08:48 475K
20260505T06Z_MSC_RDPS_WindSpeed_IsbL-0150_RLatLon0.09_PT024H.grib2 2026-05-05 08:48 378K
20260505T06Z_MSC_RDPS_WindSpeed_IsbL-0175_RLatLon0.09_PT024H.grib2 2026-05-05 08:48 423K
20260505T06Z_MSC_RDPS_WindSpeed_IsbL-0200_RLatLon0.09_PT024H.grib2 2026-05-05 08:48 435K
20260505T06Z_MSC_RDPS_WindSpeed_IsbL-0225_RLatLon0.09_PT024H.grib2 2026-05-05 08:48 438K
20260505T06Z_MSC_RDPS_WindSpeed_IsbL-0250_RLatLon0.09_PT024H.grib2 2026-05-05 08:48 441K
20260505T06Z_MSC_RDPS_WindSpeed_IsbL-0275_RLatLon0.09_PT024H.grib2 2026-05-05 08:48 458K
20260505T06Z_MSC_RDPS_WindSpeed_IsbL-0300_RLatLon0.09_PT024H.grib2 2026-05-05 08:48 459K
20260505T06Z_MSC_RDPS_WindSpeed_IsbL-0350_RLatLon0.09_PT024H.grib2 2026-05-05 08:48 475K
20260505T06Z_MSC_RDPS_WindSpeed_IsbL-0400_RLatLon0.09_PT024H.grib2 2026-05-05 08:48 481K
20260505T06Z_MSC_RDPS_WindSpeed_IsbL-0450_RLatLon0.09_PT024H.grib2 2026-05-05 08:48 463K
20260505T06Z_MSC_RDPS_WindSpeed_IsbL-0500_RLatLon0.09_PT024H.grib2 2026-05-05 08:48 462K
20260505T06Z_MSC_RDPS_WindSpeed_IsbL-0550_RLatLon0.09_PT024H.grib2 2026-05-05 08:48 462K
20260505T06Z_MSC_RDPS_WindSpeed_IsbL-0600_RLatLon0.09_PT024H.grib2 2026-05-05 08:48 589K
20260505T06Z_MSC_RDPS_WindSpeed_IsbL-0650_RLatLon0.09_PT024H.grib2 2026-05-05 08:48 609K
20260505T06Z_MSC_RDPS_WindSpeed_IsbL-0700_RLatLon0.09_PT024H.grib2 2026-05-05 08:48 677K
20260505T06Z_MSC_RDPS_WindSpeed_IsbL-0750_RLatLon0.09_PT024H.grib2 2026-05-05 08:48 707K
20260505T06Z_MSC_RDPS_WindSpeed_IsbL-0800_RLatLon0.09_PT024H.grib2 2026-05-05 08:48 756K
20260505T06Z_MSC_RDPS_WindSpeed_IsbL-0850_RLatLon0.09_PT024H.grib2 2026-05-05 08:48 823K
20260505T06Z_MSC_RDPS_WindSpeed_IsbL-0875_RLatLon0.09_PT024H.grib2 2026-05-05 08:48 845K
20260505T06Z_MSC_RDPS_WindSpeed_IsbL-0900_RLatLon0.09_PT024H.grib2 2026-05-05 08:48 858K
20260505T06Z_MSC_RDPS_WindSpeed_IsbL-0925_RLatLon0.09_PT024H.grib2 2026-05-05 08:48 872K
20260505T06Z_MSC_RDPS_WindSpeed_IsbL-0950_RLatLon0.09_PT024H.grib2 2026-05-05 08:48 873K
20260505T06Z_MSC_RDPS_WindSpeed_IsbL-0970_RLatLon0.09_PT024H.grib2 2026-05-05 08:48 870K
20260505T06Z_MSC_RDPS_WindSpeed_IsbL-0985_RLatLon0.09_PT024H.grib2 2026-05-05 08:48 856K
20260505T06Z_MSC_RDPS_WindSpeed_IsbL-1000_RLatLon0.09_PT024H.grib2 2026-05-05 08:48 850K
20260505T06Z_MSC_RDPS_WindSpeed_IsbL-1015_RLatLon0.09_PT024H.grib2 2026-05-05 08:48 842K
20260505T06Z_MSC_RDPS_WindU_AGL-10m_RLatLon0.09_PT024H.grib2 2026-05-05 08:48 430K
20260505T06Z_MSC_RDPS_WindU_AGL-120m_RLatLon0.09_PT024H.grib2 2026-05-05 08:48 533K
20260505T06Z_MSC_RDPS_WindU_AGL-40m_RLatLon0.09_PT024H.grib2 2026-05-05 08:48 537K
20260505T06Z_MSC_RDPS_WindU_AGL-80m_RLatLon0.09_PT024H.grib2 2026-05-05 08:48 534K
20260505T06Z_MSC_RDPS_WindU_IsbL-0001_RLatLon0.09_PT024H.grib2 2026-05-05 08:48 240K
20260505T06Z_MSC_RDPS_WindU_IsbL-0005_RLatLon0.09_PT024H.grib2 2026-05-05 08:48 283K
20260505T06Z_MSC_RDPS_WindU_IsbL-0010_RLatLon0.09_PT024H.grib2 2026-05-05 08:48 295K
20260505T06Z_MSC_RDPS_WindU_IsbL-0020_RLatLon0.09_PT024H.grib2 2026-05-05 08:48 313K
20260505T06Z_MSC_RDPS_WindU_IsbL-0030_RLatLon0.09_PT024H.grib2 2026-05-05 08:48 350K
20260505T06Z_MSC_RDPS_WindU_IsbL-0050_RLatLon0.09_PT024H.grib2 2026-05-05 08:48 380K
20260505T06Z_MSC_RDPS_WindU_IsbL-0100_RLatLon0.09_PT024H.grib2 2026-05-05 08:48 335K
20260505T06Z_MSC_RDPS_WindU_IsbL-0150_RLatLon0.09_PT024H.grib2 2026-05-05 08:48 395K
20260505T06Z_MSC_RDPS_WindU_IsbL-0175_RLatLon0.09_PT024H.grib2 2026-05-05 08:48 322K
20260505T06Z_MSC_RDPS_WindU_IsbL-0200_RLatLon0.09_PT024H.grib2 2026-05-05 08:48 332K
20260505T06Z_MSC_RDPS_WindU_IsbL-0225_RLatLon0.09_PT024H.grib2 2026-05-05 08:48 334K
20260505T06Z_MSC_RDPS_WindU_IsbL-0250_RLatLon0.09_PT024H.grib2 2026-05-05 08:48 334K
20260505T06Z_MSC_RDPS_WindU_IsbL-0275_RLatLon0.09_PT024H.grib2 2026-05-05 08:48 347K
20260505T06Z_MSC_RDPS_WindU_IsbL-0300_RLatLon0.09_PT024H.grib2 2026-05-05 08:48 347K
20260505T06Z_MSC_RDPS_WindU_IsbL-0350_RLatLon0.09_PT024H.grib2 2026-05-05 08:48 361K
20260505T06Z_MSC_RDPS_WindU_IsbL-0400_RLatLon0.09_PT024H.grib2 2026-05-05 08:48 469K
20260505T06Z_MSC_RDPS_WindU_IsbL-0450_RLatLon0.09_PT024H.grib2 2026-05-05 08:48 469K
20260505T06Z_MSC_RDPS_WindU_IsbL-0500_RLatLon0.09_PT024H.grib2 2026-05-05 08:48 468K
20260505T06Z_MSC_RDPS_WindU_IsbL-0550_RLatLon0.09_PT024H.grib2 2026-05-05 08:48 469K
20260505T06Z_MSC_RDPS_WindU_IsbL-0600_RLatLon0.09_PT024H.grib2 2026-05-05 08:48 478K
20260505T06Z_MSC_RDPS_WindU_IsbL-0650_RLatLon0.09_PT024H.grib2 2026-05-05 08:48 497K
20260505T06Z_MSC_RDPS_WindU_IsbL-0700_RLatLon0.09_PT024H.grib2 2026-05-05 08:48 503K
20260505T06Z_MSC_RDPS_WindU_IsbL-0750_RLatLon0.09_PT024H.grib2 2026-05-05 08:48 529K
20260505T06Z_MSC_RDPS_WindU_IsbL-0800_RLatLon0.09_PT024H.grib2 2026-05-05 08:48 571K
20260505T06Z_MSC_RDPS_WindU_IsbL-0850_RLatLon0.09_PT024H.grib2 2026-05-05 08:48 631K
20260505T06Z_MSC_RDPS_WindU_IsbL-0875_RLatLon0.09_PT024H.grib2 2026-05-05 08:48 650K
20260505T06Z_MSC_RDPS_WindU_IsbL-0900_RLatLon0.09_PT024H.grib2 2026-05-05 08:48 660K
20260505T06Z_MSC_RDPS_WindU_IsbL-0925_RLatLon0.09_PT024H.grib2 2026-05-05 08:48 668K
20260505T06Z_MSC_RDPS_WindU_IsbL-0950_RLatLon0.09_PT024H.grib2 2026-05-05 08:48 663K
20260505T06Z_MSC_RDPS_WindU_IsbL-0970_RLatLon0.09_PT024H.grib2 2026-05-05 08:48 797K
20260505T06Z_MSC_RDPS_WindU_IsbL-0985_RLatLon0.09_PT024H.grib2 2026-05-05 08:48 786K
20260505T06Z_MSC_RDPS_WindU_IsbL-1000_RLatLon0.09_PT024H.grib2 2026-05-05 08:48 782K
20260505T06Z_MSC_RDPS_WindU_IsbL-1015_RLatLon0.09_PT024H.grib2 2026-05-05 08:48 822K
20260505T06Z_MSC_RDPS_WindV_AGL-10m_RLatLon0.09_PT024H.grib2 2026-05-05 08:48 434K
20260505T06Z_MSC_RDPS_WindV_AGL-120m_RLatLon0.09_PT024H.grib2 2026-05-05 08:48 417K
20260505T06Z_MSC_RDPS_WindV_AGL-40m_RLatLon0.09_PT024H.grib2 2026-05-05 08:48 539K
20260505T06Z_MSC_RDPS_WindV_AGL-80m_RLatLon0.09_PT024H.grib2 2026-05-05 08:48 535K
20260505T06Z_MSC_RDPS_WindV_IsbL-0001_RLatLon0.09_PT024H.grib2 2026-05-05 08:48 245K
20260505T06Z_MSC_RDPS_WindV_IsbL-0005_RLatLon0.09_PT024H.grib2 2026-05-05 08:48 288K
20260505T06Z_MSC_RDPS_WindV_IsbL-0010_RLatLon0.09_PT024H.grib2 2026-05-05 08:48 297K
20260505T06Z_MSC_RDPS_WindV_IsbL-0020_RLatLon0.09_PT024H.grib2 2026-05-05 08:48 314K
20260505T06Z_MSC_RDPS_WindV_IsbL-0030_RLatLon0.09_PT024H.grib2 2026-05-05 08:48 312K
20260505T06Z_MSC_RDPS_WindV_IsbL-0050_RLatLon0.09_PT024H.grib2 2026-05-05 08:48 345K
20260505T06Z_MSC_RDPS_WindV_IsbL-0100_RLatLon0.09_PT024H.grib2 2026-05-05 08:48 331K
20260505T06Z_MSC_RDPS_WindV_IsbL-0150_RLatLon0.09_PT024H.grib2 2026-05-05 08:48 391K
20260505T06Z_MSC_RDPS_WindV_IsbL-0175_RLatLon0.09_PT024H.grib2 2026-05-05 08:48 320K
20260505T06Z_MSC_RDPS_WindV_IsbL-0200_RLatLon0.09_PT024H.grib2 2026-05-05 08:48 330K
20260505T06Z_MSC_RDPS_WindV_IsbL-0225_RLatLon0.09_PT024H.grib2 2026-05-05 08:48 333K
20260505T06Z_MSC_RDPS_WindV_IsbL-0250_RLatLon0.09_PT024H.grib2 2026-05-05 08:48 335K
20260505T06Z_MSC_RDPS_WindV_IsbL-0275_RLatLon0.09_PT024H.grib2 2026-05-05 08:48 374K
20260505T06Z_MSC_RDPS_WindV_IsbL-0300_RLatLon0.09_PT024H.grib2 2026-05-05 08:48 373K
20260505T06Z_MSC_RDPS_WindV_IsbL-0350_RLatLon0.09_PT024H.grib2 2026-05-05 08:48 384K
20260505T06Z_MSC_RDPS_WindV_IsbL-0400_RLatLon0.09_PT024H.grib2 2026-05-05 08:48 364K
20260505T06Z_MSC_RDPS_WindV_IsbL-0450_RLatLon0.09_PT024H.grib2 2026-05-05 08:48 363K
20260505T06Z_MSC_RDPS_WindV_IsbL-0500_RLatLon0.09_PT024H.grib2 2026-05-05 08:48 362K
20260505T06Z_MSC_RDPS_WindV_IsbL-0550_RLatLon0.09_PT024H.grib2 2026-05-05 08:48 467K
20260505T06Z_MSC_RDPS_WindV_IsbL-0600_RLatLon0.09_PT024H.grib2 2026-05-05 08:48 475K
20260505T06Z_MSC_RDPS_WindV_IsbL-0650_RLatLon0.09_PT024H.grib2 2026-05-05 08:48 493K
20260505T06Z_MSC_RDPS_WindV_IsbL-0700_RLatLon0.09_PT024H.grib2 2026-05-05 08:48 514K
20260505T06Z_MSC_RDPS_WindV_IsbL-0750_RLatLon0.09_PT024H.grib2 2026-05-05 08:48 524K
20260505T06Z_MSC_RDPS_WindV_IsbL-0800_RLatLon0.09_PT024H.grib2 2026-05-05 08:48 567K
20260505T06Z_MSC_RDPS_WindV_IsbL-0850_RLatLon0.09_PT024H.grib2 2026-05-05 08:48 625K
20260505T06Z_MSC_RDPS_WindV_IsbL-0875_RLatLon0.09_PT024H.grib2 2026-05-05 08:48 645K
20260505T06Z_MSC_RDPS_WindV_IsbL-0900_RLatLon0.09_PT024H.grib2 2026-05-05 08:48 655K
20260505T06Z_MSC_RDPS_WindV_IsbL-0925_RLatLon0.09_PT024H.grib2 2026-05-05 08:48 665K
20260505T06Z_MSC_RDPS_WindV_IsbL-0950_RLatLon0.09_PT024H.grib2 2026-05-05 08:48 663K
20260505T06Z_MSC_RDPS_WindV_IsbL-0970_RLatLon0.09_PT024H.grib2 2026-05-05 08:48 658K
20260505T06Z_MSC_RDPS_WindV_IsbL-0985_RLatLon0.09_PT024H.grib2 2026-05-05 08:48 652K
20260505T06Z_MSC_RDPS_WindV_IsbL-1000_RLatLon0.09_PT024H.grib2 2026-05-05 08:48 648K
20260505T06Z_MSC_RDPS_WindV_IsbL-1015_RLatLon0.09_PT024H.grib2 2026-05-05 08:48 780K